Tracking 17147 objects as of 4-July-2015
HD Live streaming from Space Station

SCOUT G-1 DEB

Track SCOUT G-1 DEB now!
10-day predictions
SCOUT G-1 DEB is classified as:


NORAD ID: 22707
Int'l Code: 1993-041D
Perigee: 715.3 km
Apogee: 929.3 km
Inclination: 90.1 °
Period: 101.2 minutes
Semi major axis: 7193 km
RCS: 0.041 m2 (small)
Launch date: June 25, 1993
Source: United States (US)

Note: This is SATELLITE DEBRIS
Your satellite tracking list
Your tracking list is empty





NASA's NSSDC Master Catalog

Two Line Element Set (TLE):
1 22707U 93041D   15184.15530972  .00000206  00000-0  76508-4 0  9994
2 22707 090.0620 243.0485 0148788 082.3328 279.4732 14.23015098140142

Source of the keplerian elements: AFSPC

N2YO: 274